CDT,Max TemperatureF,Mean TemperatureF,Min TemperatureF,Max Dew PointF,MeanDew PointF,Min DewpointF,Max Humidity, Mean Humidity, Min Humidity, Max Sea Level PressureIn, Mean Sea Level PressureIn, Min Sea Level PressureIn, Max VisibilityMiles, Mean VisibilityMiles, Min VisibilityMiles, Max Wind SpeedMPH, Mean Wind SpeedMPH, Max Gust SpeedMPH,PrecipitationIn, CloudCover, Events, WindDirDegrees
2013-5-1,52,43,33,48,38,31,96,86,76,30.47,30.24,29.96,10,8,3,25,17,33,1.02,8,Rain-Thunderstorm,350
2013-5-2,33,32,31,31,30,28,100,91,82,30.50,30.43,30.36,9,1,0,29,18,36,1.30,8,Fog-Rain-Snow,6
2013-5-3,33,32,31,31,29,28,92,89,85,30.39,30.23,30.06,10,4,1,24,17,31,0.47,8,Rain-Snow,10
2013-5-4,48,40,32,38,33,30,100,83,66,30.15,30.09,30.03,10,6,0,17,11,22,0.17,6,Fog-Rain,18
2013-5-5,62,49,36,50,42,33,92,78,64,30.17,30.12,30.07,10,10,10,12,8,15,0.00,1,,344
2013-5-6,73,59,44,49,46,42,93,67,41,30.13,30.08,30.04,10,9,4,9,5,12,0.00,0,,336
2013-5-7,76,63,50,51,46,42,77,55,33,30.10,30.04,29.99,10,10,7,14,4,17,0.00,0,,251
2013-5-8,77,64,50,56,49,45,84,60,36,30.03,30.00,29.95,10,10,6,26,6,31,0.06,3,Rain,171
2013-5-9,58,51,44,55,53,43,93,90,86,30.02,29.97,29.95,10,5,1,24,12,30,0.84,8,Rain,38
2013-5-10,64,52,40,47,40,35,96,66,36,30.09,30.03,29.95,10,10,9,22,10,28,T,4,Rain,347
2013-5-11,53,44,35,43,29,22,71,51,30,30.18,30.05,29.88,10,10,10,38,20,47,T,3,Rain,322
2013-5-12,56,44,31,25,24,19,72,50,27,30.23,30.18,30.12,10,10,10,22,10,29,0.00,0,,317
2013-5-13,68,50,32,45,32,21,78,53,27,30.14,30.01,29.74,10,10,10,26,14,32,T,1,,182
2013-5-14,97,75,52,55,46,30,77,47,16,29.73,29.64,29.47,10,10,10,31,16,45,T,0,Rain,234
2013-5-15,74,64,53,51,45,40,72,54,35,29.94,29.86,29.69,10,10,6,20,9,25,0.02,1,Rain,292
2013-5-16,84,68,52,53,45,42,66,45,24,29.92,29.89,29.85,10,10,9,13,6,17,T,1,Rain,198
2013-5-17,66,58,50,58,53,48,96,82,67,30.04,29.99,29.88,10,4,1,22,12,28,2.43,7,Rain-Thunderstorm,120
2013-5-18,79,67,54,65,59,51,93,76,58,30.01,29.94,29.84,10,8,5,21,11,26,0.00,2,,146
2013-5-19,79,70,60,68,62,57,93,81,69,29.85,29.71,29.59,10,6,1,48,15,60,2.07,5,Rain-Thunderstorm,158
2013-5-20,72,65,58,61,59,52,100,81,61,29.67,29.60,29.54,10,9,4,33,16,41,0.15,6,Rain-Thunderstorm,174
2013-5-21,64,61,58,59,55,51,93,80,67,29.70,29.62,29.53,10,10,8,21,9,25,0.02,8,,199
2013-5-22,60,56,51,55,53,48,93,87,80,29.91,29.73,29.67,10,7,2,22,12,28,0.08,8,Rain,24
2013-5-23,62,53,44,48,40,32,89,62,34,30.35,30.15,29.94,10,10,10,22,13,28,T,3,Rain,25
2013-5-24,66,53,40,49,39,31,77,61,44,30.42,30.35,30.25,10,10,10,18,9,23,0.03,2,Rain,137
2013-5-25,54,52,50,48,46,41,83,76,68,30.33,30.28,30.25,10,9,3,25,15,31,0.01,8,Rain,137
2013-5-26,54,50,46,50,44,39,96,84,71,30.25,30.18,30.08,10,9,3,28,15,35,0.25,7,Rain,114
2013-5-27,56,54,52,54,52,50,100,95,89,30.07,29.93,29.84,10,4,1,21,13,26,0.56,8,Rain,102
2013-5-28,65,59,52,60,54,52,100,94,87,29.82,29.76,29.72,9,3,0,13,5,23,0.04,8,Fog-Rain,96
2013-5-29,78,69,59,68,62,57,100,87,73,29.84,29.78,29.69,10,6,0,36,11,46,1.04,7,Fog-Rain-Thunderstorm,142
2013-5-30,75,69,63,64,63,59,93,81,68,29.75,29.65,29.57,10,8,1,30,17,41,0.47,6,Rain-Thunderstorm,173
2013-5-31,77,67,56,63,58,52,97,73,49,29.67,29.62,29.57,10,9,0,17,18,23,1.23,5,Rain-Hail-Thunderstorm,183